Update 08.04.19 Menü aufgeräumt und Stützis neue Wetterseite verlinkt
Besuchen Sie den Menüpunkt "Almanach / History" hier gibt es viele interessante Statistiken aus den Daten meiner Wetterstation (seit 2011)

Rindlberg West Mehr Informationen Rindlberg West


Stuetzi - Rindlberg Ost Mehr Informationen Stuetzi - Rindlberg Ost


Regenradar Mehr Informationen rain snow radar


Sie finden meine Wetter-Infos auch auf:

Weather Underground

AWEKAS



Wählen sie eine andere Periode ( ausblenden )

Einheiten Zeitraum Benutzerdef. Zeitraum Direkt zu
metrisch Englisch Beide
Täglich Wöchentlich Monatlich Jährlich
Beide Datumseingaben nutzen um einen Bereich festzulegen
vorheriger Tag
Mit diesem Datum

WU Grafiken für diese Periode ( klicken )


Täglich Zusammenfassung für Montag 22 April 2019
Zeit Temp. ( °C ) Taupt. ( °C ) Wind ( km/h ) von Windböen ( km/h ) Luftdruck ( hPa ) Luftf.( % ) Regenrate ( cm )
Hoch18,1 1,9 24,1 ONO ( 921/1878 ) 27,4 1017,8 54 -
Durchchnittswerte11,0 -1,3 7,8 ONO #97/240 13,4 1013,9 43 -
Tief3,0 -6,6 -   0,0 1010,7 31 -
Täglich tabellarische Details für Montag 22 April 2019
Zeit Temp. ( °C ) Taupt. ( °C ) Wind ( km/h ) von Windböen ( km/h ) Luftdruck ( hPa ) Luftf.( % ) Regenrate ( cm )
00:04 4,3 -6,6   Windstille   1017,8 45 -
00:09 4,2 -6,4   Windstille   1017,8 46 -
00:14 4,2 -6,1   Windstille   1017,8 47 -
00:19 4,1 -6,5   Windstille   1017,8 46 -
00:24 4,1 -6,2   Windstille   1017,8 47 -
00:29 4,0 -6,0   Windstille   1017,8 48 -
00:34 4,0 -6,0 4,8 ONO   1017,8 48 -
00:39 4,0 -6,0 3,2 ONO   1017,8 48 -
00:44 4,0 -6,0   Windstille 6,4 1017,8 48 -
00:49 3,8 -5,7 4,8 ONO 6,4 1017,8 50 -
00:54 3,8 -5,7   Windstille 6,4 1017,8 50 -
00:59 3,8 -5,7   Windstille 6,4 1017,8 50 -
01:04 3,8 -5,4 4,8 ONO 6,4 1017,8 51 -
01:09 3,7 -5,2   Windstille 6,4 1017,8 52 -
01:14 3,7 -5,2 4,8 ONO 6,4 1017,8 52 -
01:19 3,8 -5,2 4,8 ONO 6,4 1017,8 52 -
01:24 3,8 -5,2 6,4 ONO 6,4 1017,8 52 -
01:29 3,7 -5,0 3,2 ONO 6,4 1017,8 53 -
01:34 3,6 -5,1 4,8 ONO 6,4 1017,8 53 -
01:39 3,6 -5,3   Windstille 6,4 1017,8 52 -
01:44 3,6 -5,6   Windstille 6,4 1016,8 51 -
01:49 3,5 -5,7   Windstille 6,4 1016,8 51 -
01:54 3,5 -5,7   Windstille 6,4 1016,8 51 -
01:59 3,5 -5,4   Windstille 6,4 1016,8 52 -
02:04 3,5 -5,4   Windstille 6,4 1016,8 52 -
02:09 3,4 -5,5   Windstille 4,8 1016,8 52 -
02:14 3,3 -5,6 4,8 ONO 6,4 1016,8 52 -
02:19 3,2 -5,5   Windstille 6,4 1016,8 53 -
02:24 3,2 -5,5 6,4 ONO 6,4 1016,8 53 -
02:29 3,2 -5,5 6,4 ONO 6,4 1016,8 53 -
02:34 3,1 -5,3   Windstille 6,4 1016,8 54 -
02:39 3,1 -5,6 3,2 ONO 6,4 1016,8 53 -
02:44 3,1 -5,6   Windstille 6,4 1016,8 53 -
02:49 3,1 -5,6 6,4 ONO 6,4 1016,8 53 -
02:54 3,0 -5,4 6,4 ONO 6,4 1015,8 54 -
02:59 3,0 -5,6 4,8 ONO 6,4 1015,8 53 -
03:04 3,0 -5,6   Windstille 6,4 1015,8 53 -
03:09 3,0 -5,6   Windstille 6,4 1015,8 53 -
03:14 3,0 -5,4 4,8 ONO 6,4 1015,8 54 -
03:19 3,0 -5,6 4,8 ONO 6,4 1015,8 53 -
03:24 3,1 -5,6   Windstille 8,0 1015,8 53 -
03:29 3,1 -5,6 6,4 ONO 8,0 1015,8 53 -
03:34 3,1 -5,6 6,4 ONO 8,0 1015,8 53 -
03:39 3,1 -5,6   Windstille 6,4 1015,8 53 -
03:44 3,1 -5,6   Windstille 6,4 1015,8 53 -
03:49 3,1 -5,6   Windstille 6,4 1015,8 53 -
03:54 3,1 -5,6   Windstille 4,8 1015,8 53 -
03:59 3,1 -5,6   Windstille   1015,8 53 -
04:04 3,1 -5,6   Windstille   1015,8 53 -
04:09 3,0 -5,6 4,8 ONO   1015,8 53 -
04:14 3,0 -5,6 4,8 ONO 6,4 1015,8 53 -
04:19 3,1 -5,3 4,8 ONO 6,4 1015,8 54 -
04:24 3,2 -5,2 4,8 ONO 6,4 1015,8 54 -
04:29 3,4 -5,0 4,8 ONO 4,8 1015,8 54 -
04:34 3,5 -4,9   Windstille 6,4 1015,8 54 -
04:39 3,7 -4,8   Windstille 6,4 1015,8 54 -
04:44 3,8 -4,7   Windstille 6,4 1014,8 54 -
04:49 3,9 -4,6   Windstille 6,4 1014,8 54 -
04:54 4,0 -4,5   Windstille 6,4 1014,8 54 -
04:59 4,0 -4,5   Windstille 4,8 1014,8 54 -
05:04 4,1 -4,4 3,2 ONO 4,8 1014,8 54 -
05:09 4,2 -4,3   Windstille 3,2 1014,8 54 -
05:14 4,2 -4,3   Windstille 6,4 1014,8 54 -
05:19 4,3 -4,2 3,2 ONO 6,4 1014,8 54 -
05:24 4,3 -4,4   Windstille 6,4 1014,8 53 -
05:29 4,3 -4,4   Windstille 6,4 1014,8 53 -
05:34 4,2 -4,5   Windstille 4,8 1014,8 53 -
05:39 4,1 -4,6 4,8 ONO   1014,8 53 -
05:44 4,1 -4,6 4,8 ONO 4,8 1014,8 53 -
05:49 4,1 -4,4 3,2 ONO 6,4 1014,8 54 -
05:54 4,2 -4,3   Windstille 6,4 1014,8 54 -
05:59 4,3 -4,2 4,8 ONO 6,4 1014,8 54 -
06:04 4,5 -4,0 4,8 ONO 6,4 1014,8 54 -
06:09 4,6 -3,9   Windstille 6,4 1014,8 54 -
06:14 4,7 -3,8   Windstille 6,4 1014,8 54 -
06:19 4,9 -3,6   Windstille 6,4 1014,8 54 -
06:24 5,0 -3,5   Windstille 6,4 1014,8 54 -
06:29 5,0 -3,8   Windstille 4,8 1014,8 53 -
06:34 5,0 -3,8   Windstille 4,8 1014,8 53 -
06:39 5,0 -3,8   Windstille   1014,8 53 -
06:44 4,9 -3,6 3,2 ONO   1014,8 54 -
06:49 5,0 -3,8   Windstille 4,8 1014,8 53 -
06:54 5,1 -3,7   Windstille 4,8 1014,8 53 -
06:59 5,3 -3,3   Windstille 4,8 1014,8 54 -
07:04 5,5 -3,1   Windstille 3,2 1014,8 54 -
07:09 5,9 -2,7 6,4 Osten   1014,8 54 -
07:14 6,4 -2,2 4,8 Osten 4,8 1014,8 54 -
07:19 7,0 -1,7 8,0 Osten 6,4 1014,8 54 -
07:24 7,6 -1,1 9,7 NO 6,4 1014,8 54 -
07:29 8,1 -0,9 6,4 ONO 9,7 1014,8 53 -
07:34 8,5 -0,8 6,4 Osten 9,7 1014,8 52 -
07:39 8,9 -0,4 6,4 Osten 9,7 1014,8 52 -
07:44 9,2 -0,1 8,0 ONO 9,7 1014,8 52 -
07:49 9,6 0,0 6,4 Osten 9,7 1014,8 51 -
07:54 9,9 0,2 6,4 ONO 9,7 1014,8 51 -
07:59 10,2 0,2 6,4 Osten 9,7 1014,8 50 -
08:04 10,4 0,4 6,4 Osten 9,7 1014,8 50 -
08:09 10,7 0,7 8,0 ONO 9,7 1014,8 50 -
08:14 10,9 0,6 8,0 Osten 9,7 1014,8 49 -
08:19 11,1 0,8 6,4 Osten 12,9 1014,8 49 -
08:24 11,3 0,7 9,7 OSO 12,9 1013,8 48 -
08:29 11,5 0,9 6,4 ONO 12,9 1013,8 48 -
08:34 11,7 1,0 6,4 OSO 9,7 1013,8 48 -
08:39 11,9 1,2 8,0 ONO 12,9 1013,8 48 -
08:44 12,1 1,1 9,7 Osten 12,9 1013,8 47 -
08:49 12,2 0,9 9,7 OSO 12,9 1013,8 46 -
08:54 12,4 1,1 6,4 OSO 12,9 1013,8 46 -
08:59 12,6 1,3 8,0 OSO 12,9 1013,8 46 -
09:04 12,8 1,5 9,7 Osten 12,9 1013,8 46 -
09:09 12,9 1,2 8,0 ONO 12,9 1013,8 45 -
09:14 13,1 1,1 14,5 ONO 12,9 1013,8 44 -
09:19 13,2 1,2 9,7 OSO 12,9 1013,8 44 -
09:24 13,3 1,0 8,0 SO 14,5 1013,8 43 -
09:29 13,3 0,7 12,9 Osten 14,5 1013,8 42 -
09:34 13,5 0,8 14,5 SO 17,7 1013,8 42 -
09:39 13,7 1,3 6,4 Osten 17,7 1013,8 43 -
09:44 13,9 1,5 4,8 Osten 17,7 1013,8 43 -
09:49 14,1 1,4 9,7 OSO 16,1 1013,8 42 -
09:54 14,3 1,6 9,7 Osten 16,1 1012,8 42 -
09:59 14,3 1,2 12,9 Osten 14,5 1012,8 41 -
10:04 14,4 1,3 9,7 ONO 14,5 1012,8 41 -
10:09 14,5 1,1 16,1 ONO 14,5 1012,8 40 -
10:14 14,6 1,5 8,0 ONO 17,7 1013,8 41 -
10:19 14,9 1,8 9,7 OSO 17,7 1013,8 41 -
10:24 15,1 1,6 9,7 Osten 17,7 1013,8 40 -
10:29 15,2 1,3 8,0 Osten 17,7 1013,8 39 -
10:34 15,2 1,3 12,9 NO 17,7 1013,8 39 -
10:39 15,4 1,9 8,0 ONO 17,7 1012,8 40 -
10:44 15,5 1,6 12,9 Osten 17,7 1012,8 39 -
10:49 15,5 1,2 12,9 Osten 17,7 1012,8 38 -
10:54 15,4 1,1 6,4 ONO 17,7 1012,8 38 -
10:59 15,5 1,2 12,9 ONO 17,7 1013,8 38 -
11:04 15,4 0,8 16,1 ONO 16,1 1013,8 37 -
11:09 15,3 1,1 9,7 NO 16,1 1013,8 38 -
11:14 15,3 0,7 9,7 NO 16,1 1013,8 37 -
11:19 15,3 1,1 12,9 ONO 16,1 1013,8 38 -
11:24 15,3 1,1 16,1 ONO 16,1 1013,8 38 -
11:29 15,4 0,8 12,9 ONO 17,7 1013,8 37 -
11:34 15,4 1,1 9,7 ONO 20,9 1013,8 38 -
11:39 15,5 0,9 12,9 ONO 20,9 1013,8 37 -
11:44 15,4 1,1 12,9 ONO 17,7 1013,8 38 -
11:49 15,5 0,9 12,9 ONO 17,7 1013,8 37 -
11:54 15,5 0,9 9,7 ONO 17,7 1013,8 37 -
11:59 15,5 0,9 9,7 SO 17,7 1013,8 37 -
12:04 15,5 1,2 12,9 Osten 17,7 1013,8 38 -
12:09 15,7 1,4 6,4 NO 16,1 1013,8 38 -
12:14 15,7 1,0 16,1 ONO 14,5 1013,8 37 -
12:19 15,7 1,0 9,7 NO 17,7 1013,8 37 -
12:24 15,7 1,0 9,7 ONO 19,3 1013,8 37 -
12:29 15,8 0,8 9,7 ONO 19,3 1013,8 36 -
12:34 16,0 0,9 4,8 ONO 19,3 1013,8 36 -
12:39 16,1 1,4 12,9 ONO 14,5 1013,8 37 -
12:44 16,2 1,5 8,0 OSO 16,1 1012,8 37 -
12:49 16,2 1,1 4,8 NO 16,1 1012,8 36 -
12:54 16,5 1,4 12,9 ONO 16,1 1012,8 36 -
12:59 16,4 1,3 9,7 ONO 14,5 1012,8 36 -
13:04 16,6 1,1 6,4 ONO 17,7 1012,8 35 -
13:09 16,5 1,0 12,9 ONO 17,7 1012,8 35 -
13:14 16,7 1,2 19,3 OSO 17,7 1012,8 35 -
13:19 17,0 1,4 17,7 SO 14,5 1012,8 35 -
13:24 17,0 1,0 8,0 ONO 19,3 1012,8 34 -
13:29 17,1 1,5 4,8 Osten 19,3 1012,8 35 -
13:34 17,1 1,1 16,1 ONO 17,7 1012,8 34 -
13:39 17,1 1,1 12,9 NO 17,7 1012,8 34 -
13:44 17,0 1,0 16,1 OSO 16,1 1012,8 34 -
13:49 17,0 1,0 6,4 Osten 16,1 1012,8 34 -
13:54 17,1 1,1 8,0 NO 16,1 1012,8 34 -
13:59 17,0 1,0 12,9 ONO 16,1 1012,8 34 -
14:04 17,0 1,0 9,7 NO 17,7 1012,8 34 -
14:09 17,0 1,0 9,7 ONO 17,7 1012,8 34 -
14:14 17,0 1,0 8,0 ONO 17,7 1012,8 34 -
14:19 17,2 1,2 6,4 ONO 16,1 1012,8 34 -
14:24 17,6 1,5 8,0 NO 17,7 1012,8 34 -
14:29 17,7 1,6 12,9 Osten 17,7 1012,8 34 -
14:34 17,6 1,1 9,7 ONO 17,7 1012,8 33 -
14:39 17,7 1,2 8,0 Osten 17,7 1012,8 33 -
14:44 17,6 1,1 8,0 Osten 19,3 1012,8 33 -
14:49 17,6 0,7 12,9 ONO 19,3 1012,8 32 -
14:54 17,6 1,1 8,0 Osten 19,3 1012,8 33 -
14:59 17,8 1,3 9,7 OSO 14,5 1012,8 33 -
15:04 17,9 1,4 17,7 ONO 16,1 1012,8 33 -
15:09 18,0 1,1 17,7 SO 17,7 1012,8 32 -
15:14 18,0 1,1 14,5 ONO 17,7 1012,8 32 -
15:19 17,8 0,9 9,7 Osten 17,7 1012,8 32 -
15:24 17,9 1,4 9,7 ONO 17,7 1011,7 33 -
15:29 17,9 1,0 12,9 OSO 16,1 1011,7 32 -
15:34 17,8 0,9 8,0 ONO 20,9 1011,7 32 -
15:39 17,9 1,4 8,0 Osten 20,9 1011,7 33 -
15:44 17,9 1,0 12,9 SO 20,9 1011,7 32 -
15:49 18,1 0,7 12,9 OSO 17,7 1011,7 31 -
15:54 17,9 1,0 8,0 ONO 17,7 1011,7 32 -
15:59 17,7 0,8 12,9 ONO 20,9 1011,7 32 -
16:04 17,6 0,7 12,9 SO 20,9 1011,7 32 -
16:09 17,6 0,7 4,8 Osten 20,9 1011,7 32 -
16:14 17,5 0,6 12,9 Osten 20,9 1011,7 32 -
16:19 17,4 0,5 12,9 Osten 16,1 1011,7 32 -
16:24 17,3 0,4 12,9 Osten 20,9 1011,7 32 -
16:29 17,3 0,4 8,0 Osten 20,9 1011,7 32 -
16:34 17,2 0,4 12,9 OSO 20,9 1011,7 32 -
16:39 17,4 0,5 9,7 Osten 20,9 1011,7 32 -
16:44 17,2 0,4 17,7 ONO 20,9 1011,7 32 -
16:49 17,1 0,7 9,7 ONO 24,1 1011,7 33 -
16:54 17,1 0,7 12,9 Osten 24,1 1011,7 33 -
16:59 16,9 0,5 17,7 ONO 24,1 1011,7 33 -
17:04 16,7 0,3 12,9 Osten 22,5 1011,7 33 -
17:09 16,6 0,3 8,0 Osten 22,5 1011,7 33 -
17:14 16,6 0,3 16,1 OSO 22,5 1011,7 33 -
17:19 16,6 0,3 6,4 Osten 22,5 1011,7 33 -
17:24 16,6 0,7 9,7 ONO 19,3 1011,7 34 -
17:29 16,7 0,3 19,3 ONO 20,9 1011,7 33 -
17:34 16,5 0,2 14,5 Osten 20,9 1011,7 33 -
17:39 16,4 0,1 16,1 ONO 20,9 1011,7 33 -
17:44 16,3 0,0 12,9 OSO 22,5 1011,7 33 -
17:49 16,3 0,0 12,9 SO 22,5 1011,7 33 -
17:54 16,2 -0,1 12,9 Osten 22,5 1011,7 33 -
17:59 16,1 -0,2 17,7 SO 20,9 1011,7 33 -
18:04 15,9 -0,4 12,9 OSO 24,1 1011,7 33 -
18:09 15,8 0,0 8,0 ONO 27,4 1011,7 34 -
18:14 15,7 -0,1 16,1 Osten 27,4 1011,7 34 -
18:19 15,6 -0,2 17,7 ONO 27,4 1011,7 34 -
18:24 15,4 -0,4 12,9 Osten 25,7 1011,7 34 -
18:29 15,2 -0,6 9,7 OSO 27,4 1010,7 34 -
18:34 15,1 -0,7 12,9 Osten 27,4 1010,7 34 -
18:39 15,0 -0,3 9,7 Osten 27,4 1010,7 35 -
18:44 14,8 -0,1 19,3 ONO 27,4 1010,7 36 -
18:49 14,6 0,1 12,9 ONO 27,4 1010,7 37 -
18:54 14,4 -0,1 9,7 ONO 27,4 1010,7 37 -
18:59 14,3 -0,2 12,9 ONO 27,4 1010,7 37 -
19:04 14,1 0,0 12,9 ONO 24,1 1010,7 38 -
19:09 14,0 -0,1 17,7 ONO 24,1 1010,7 38 -
19:14 13,9 0,2 12,9 ONO 24,1 1010,7 39 -
19:19 13,7 0,0 8,0 ONO 20,9 1010,7 39 -
19:24 13,6 0,2 24,1 ONO 20,9 1010,7 40 -
19:29 13,4 0,1 24,1 ONO 24,1 1010,7 40 -
19:34 13,2 0,2 12,9 SSO 24,1 1010,7 41 -
19:39 13,1 0,5 12,9 SO 27,4 1010,7 42 -
19:44 13,0 0,4 20,9 Osten 27,4 1010,7 42 -
19:49 12,8 0,5 8,0 Osten 24,1 1010,7 43 -
19:54 12,7 0,8 16,1 OSO 22,5 1010,7 44 -
19:59 12,6 0,7 12,9 Osten 22,5 1010,7 44 -
Täglich Zusammenfassung für Montag 22 April 2019
Zeit Temp. ( °C ) Taupt. ( °C ) Wind ( km/h ) von Windböen ( km/h ) Luftdruck ( hPa ) Luftf.( % ) Regenrate ( cm )
Hoch18,1 1,9 24,1 ONO ( 921/1878 ) 27,4 1017,8 54 -
Durchchnittswerte11,0 -1,3 7,8 ONO #97/240 13,4 1013,9 43 -
Tief3,0 -6,6 -   0,0 1010,7 31 -
Täglich tabellarische Details für Montag 22 April 2019
Zeit Temp. ( °C ) Taupt. ( °C ) Wind ( km/h ) von Windböen ( km/h ) Luftdruck ( hPa ) Luftf.( % ) Regenrate ( cm )
00:04 4,3 -6,6   Windstille   1017,8 45 -
00:09 4,2 -6,4   Windstille   1017,8 46 -
00:14 4,2 -6,1   Windstille   1017,8 47 -
00:19 4,1 -6,5   Windstille   1017,8 46 -
00:24 4,1 -6,2   Windstille   1017,8 47 -
00:29 4,0 -6,0   Windstille   1017,8 48 -
00:34 4,0 -6,0 4,8 ONO   1017,8 48 -
00:39 4,0 -6,0 3,2 ONO   1017,8 48 -
00:44 4,0 -6,0   Windstille 6,4 1017,8 48 -
00:49 3,8 -5,7 4,8 ONO 6,4 1017,8 50 -
00:54 3,8 -5,7   Windstille 6,4 1017,8 50 -
00:59 3,8 -5,7   Windstille 6,4 1017,8 50 -
01:04 3,8 -5,4 4,8 ONO 6,4 1017,8 51 -
01:09 3,7 -5,2   Windstille 6,4 1017,8 52 -
01:14 3,7 -5,2 4,8 ONO 6,4 1017,8 52 -
01:19 3,8 -5,2 4,8 ONO 6,4 1017,8 52 -
01:24 3,8 -5,2 6,4 ONO 6,4 1017,8 52 -
01:29 3,7 -5,0 3,2 ONO 6,4 1017,8 53 -
01:34 3,6 -5,1 4,8 ONO 6,4 1017,8 53 -
01:39 3,6 -5,3   Windstille 6,4 1017,8 52 -
01:44 3,6 -5,6   Windstille 6,4 1016,8 51 -
01:49 3,5 -5,7   Windstille 6,4 1016,8 51 -
01:54 3,5 -5,7   Windstille 6,4 1016,8 51 -
01:59 3,5 -5,4   Windstille 6,4 1016,8 52 -
02:04 3,5 -5,4   Windstille 6,4 1016,8 52 -
02:09 3,4 -5,5   Windstille 4,8 1016,8 52 -
02:14 3,3 -5,6 4,8 ONO 6,4 1016,8 52 -
02:19 3,2 -5,5   Windstille 6,4 1016,8 53 -
02:24 3,2 -5,5 6,4 ONO 6,4 1016,8 53 -
02:29 3,2 -5,5 6,4 ONO 6,4 1016,8 53 -
02:34 3,1 -5,3   Windstille 6,4 1016,8 54 -
02:39 3,1 -5,6 3,2 ONO 6,4 1016,8 53 -
02:44 3,1 -5,6   Windstille 6,4 1016,8 53 -
02:49 3,1 -5,6 6,4 ONO 6,4 1016,8 53 -
02:54 3,0 -5,4 6,4 ONO 6,4 1015,8 54 -
02:59 3,0 -5,6 4,8 ONO 6,4 1015,8 53 -
03:04 3,0 -5,6   Windstille 6,4 1015,8 53 -
03:09 3,0 -5,6   Windstille 6,4 1015,8 53 -
03:14 3,0 -5,4 4,8 ONO 6,4 1015,8 54 -
03:19 3,0 -5,6 4,8 ONO 6,4 1015,8 53 -
03:24 3,1 -5,6   Windstille 8,0 1015,8 53 -
03:29 3,1 -5,6 6,4 ONO 8,0 1015,8 53 -
03:34 3,1 -5,6 6,4 ONO 8,0 1015,8 53 -
03:39 3,1 -5,6   Windstille 6,4 1015,8 53 -
03:44 3,1 -5,6   Windstille 6,4 1015,8 53 -
03:49 3,1 -5,6   Windstille 6,4 1015,8 53 -
03:54 3,1 -5,6   Windstille 4,8 1015,8 53 -
03:59 3,1 -5,6   Windstille   1015,8 53 -
04:04 3,1 -5,6   Windstille   1015,8 53 -
04:09 3,0 -5,6 4,8 ONO   1015,8 53 -
04:14 3,0 -5,6 4,8 ONO 6,4 1015,8 53 -
04:19 3,1 -5,3 4,8 ONO 6,4 1015,8 54 -
04:24 3,2 -5,2 4,8 ONO 6,4 1015,8 54 -
04:29 3,4 -5,0 4,8 ONO 4,8 1015,8 54 -
04:34 3,5 -4,9   Windstille 6,4 1015,8 54 -
04:39 3,7 -4,8   Windstille 6,4 1015,8 54 -
04:44 3,8 -4,7   Windstille 6,4 1014,8 54 -
04:49 3,9 -4,6   Windstille 6,4 1014,8 54 -
04:54 4,0 -4,5   Windstille 6,4 1014,8 54 -
04:59 4,0 -4,5   Windstille 4,8 1014,8 54 -
05:04 4,1 -4,4 3,2 ONO 4,8 1014,8 54 -
05:09 4,2 -4,3   Windstille 3,2 1014,8 54 -
05:14 4,2 -4,3   Windstille 6,4 1014,8 54 -
05:19 4,3 -4,2 3,2 ONO 6,4 1014,8 54 -
05:24 4,3 -4,4   Windstille 6,4 1014,8 53 -
05:29 4,3 -4,4   Windstille 6,4 1014,8 53 -
05:34 4,2 -4,5   Windstille 4,8 1014,8 53 -
05:39 4,1 -4,6 4,8 ONO   1014,8 53 -
05:44 4,1 -4,6 4,8 ONO 4,8 1014,8 53 -
05:49 4,1 -4,4 3,2 ONO 6,4 1014,8 54 -
05:54 4,2 -4,3   Windstille 6,4 1014,8 54 -
05:59 4,3 -4,2 4,8 ONO 6,4 1014,8 54 -
06:04 4,5 -4,0 4,8 ONO 6,4 1014,8 54 -
06:09 4,6 -3,9   Windstille 6,4 1014,8 54 -
06:14 4,7 -3,8   Windstille 6,4 1014,8 54 -
06:19 4,9 -3,6   Windstille 6,4 1014,8 54 -
06:24 5,0 -3,5   Windstille 6,4 1014,8 54 -
06:29 5,0 -3,8   Windstille 4,8 1014,8 53 -
06:34 5,0 -3,8   Windstille 4,8 1014,8 53 -
06:39 5,0 -3,8   Windstille   1014,8 53 -
06:44 4,9 -3,6 3,2 ONO   1014,8 54 -
06:49 5,0 -3,8   Windstille 4,8 1014,8 53 -
06:54 5,1 -3,7   Windstille 4,8 1014,8 53 -
06:59 5,3 -3,3   Windstille 4,8 1014,8 54 -
07:04 5,5 -3,1   Windstille 3,2 1014,8 54 -
07:09 5,9 -2,7 6,4 Osten   1014,8 54 -
07:14 6,4 -2,2 4,8 Osten 4,8 1014,8 54 -
07:19 7,0 -1,7 8,0 Osten 6,4 1014,8 54 -
07:24 7,6 -1,1 9,7 NO 6,4 1014,8 54 -
07:29 8,1 -0,9 6,4 ONO 9,7 1014,8 53 -
07:34 8,5 -0,8 6,4 Osten 9,7 1014,8 52 -
07:39 8,9 -0,4 6,4 Osten 9,7 1014,8 52 -
07:44 9,2 -0,1 8,0 ONO 9,7 1014,8 52 -
07:49 9,6 0,0 6,4 Osten 9,7 1014,8 51 -
07:54 9,9 0,2 6,4 ONO 9,7 1014,8 51 -
07:59 10,2 0,2 6,4 Osten 9,7 1014,8 50 -
08:04 10,4 0,4 6,4 Osten 9,7 1014,8 50 -
08:09 10,7 0,7 8,0 ONO 9,7 1014,8 50 -
08:14 10,9 0,6 8,0 Osten 9,7 1014,8 49 -
08:19 11,1 0,8 6,4 Osten 12,9 1014,8 49 -
08:24 11,3 0,7 9,7 OSO 12,9 1013,8 48 -
08:29 11,5 0,9 6,4 ONO 12,9 1013,8 48 -
08:34 11,7 1,0 6,4 OSO 9,7 1013,8 48 -
08:39 11,9 1,2 8,0 ONO 12,9 1013,8 48 -
08:44 12,1 1,1 9,7 Osten 12,9 1013,8 47 -
08:49 12,2 0,9 9,7 OSO 12,9 1013,8 46 -
08:54 12,4 1,1 6,4 OSO 12,9 1013,8 46 -
08:59 12,6 1,3 8,0 OSO 12,9 1013,8 46 -
09:04 12,8 1,5 9,7 Osten 12,9 1013,8 46 -
09:09 12,9 1,2 8,0 ONO 12,9 1013,8 45 -
09:14 13,1 1,1 14,5 ONO 12,9 1013,8 44 -
09:19 13,2 1,2 9,7 OSO 12,9 1013,8 44 -
09:24 13,3 1,0 8,0 SO 14,5 1013,8 43 -
09:29 13,3 0,7 12,9 Osten 14,5 1013,8 42 -
09:34 13,5 0,8 14,5 SO 17,7 1013,8 42 -
09:39 13,7 1,3 6,4 Osten 17,7 1013,8 43 -
09:44 13,9 1,5 4,8 Osten 17,7 1013,8 43 -
09:49 14,1 1,4 9,7 OSO 16,1 1013,8 42 -
09:54 14,3 1,6 9,7 Osten 16,1 1012,8 42 -
09:59 14,3 1,2 12,9 Osten 14,5 1012,8 41 -
10:04 14,4 1,3 9,7 ONO 14,5 1012,8 41 -
10:09 14,5 1,1 16,1 ONO 14,5 1012,8 40 -
10:14 14,6 1,5 8,0 ONO 17,7 1013,8 41 -
10:19 14,9 1,8 9,7 OSO 17,7 1013,8 41 -
10:24 15,1 1,6 9,7 Osten 17,7 1013,8 40 -
10:29 15,2 1,3 8,0 Osten 17,7 1013,8 39 -
10:34 15,2 1,3 12,9 NO 17,7 1013,8 39 -
10:39 15,4 1,9 8,0 ONO 17,7 1012,8 40 -
10:44 15,5 1,6 12,9 Osten 17,7 1012,8 39 -
10:49 15,5 1,2 12,9 Osten 17,7 1012,8 38 -
10:54 15,4 1,1 6,4 ONO 17,7 1012,8 38 -
10:59 15,5 1,2 12,9 ONO 17,7 1013,8 38 -
11:04 15,4 0,8 16,1 ONO 16,1 1013,8 37 -
11:09 15,3 1,1 9,7 NO 16,1 1013,8 38 -
11:14 15,3 0,7 9,7 NO 16,1 1013,8 37 -
11:19 15,3 1,1 12,9 ONO 16,1 1013,8 38 -
11:24 15,3 1,1 16,1 ONO 16,1 1013,8 38 -
11:29 15,4 0,8 12,9 ONO 17,7 1013,8 37 -
11:34 15,4 1,1 9,7 ONO 20,9 1013,8 38 -
11:39 15,5 0,9 12,9 ONO 20,9 1013,8 37 -
11:44 15,4 1,1 12,9 ONO 17,7 1013,8 38 -
11:49 15,5 0,9 12,9 ONO 17,7 1013,8 37 -
11:54 15,5 0,9 9,7 ONO 17,7 1013,8 37 -
11:59 15,5 0,9 9,7 SO 17,7 1013,8 37 -
12:04 15,5 1,2 12,9 Osten 17,7 1013,8 38 -
12:09 15,7 1,4 6,4 NO 16,1 1013,8 38 -
12:14 15,7 1,0 16,1 ONO 14,5 1013,8 37 -
12:19 15,7 1,0 9,7 NO 17,7 1013,8 37 -
12:24 15,7 1,0 9,7 ONO 19,3 1013,8 37 -
12:29 15,8 0,8 9,7 ONO 19,3 1013,8 36 -
12:34 16,0 0,9 4,8 ONO 19,3 1013,8 36 -
12:39 16,1 1,4 12,9 ONO 14,5 1013,8 37 -
12:44 16,2 1,5 8,0 OSO 16,1 1012,8 37 -
12:49 16,2 1,1 4,8 NO 16,1 1012,8 36 -
12:54 16,5 1,4 12,9 ONO 16,1 1012,8 36 -
12:59 16,4 1,3 9,7 ONO 14,5 1012,8 36 -
13:04 16,6 1,1 6,4 ONO 17,7 1012,8 35 -
13:09 16,5 1,0 12,9 ONO 17,7 1012,8 35 -
13:14 16,7 1,2 19,3 OSO 17,7 1012,8 35 -
13:19 17,0 1,4 17,7 SO 14,5 1012,8 35 -
13:24 17,0 1,0 8,0 ONO 19,3 1012,8 34 -
13:29 17,1 1,5 4,8 Osten 19,3 1012,8 35 -
13:34 17,1 1,1 16,1 ONO 17,7 1012,8 34 -
13:39 17,1 1,1 12,9 NO 17,7 1012,8 34 -
13:44 17,0 1,0 16,1 OSO 16,1 1012,8 34 -
13:49 17,0 1,0 6,4 Osten 16,1 1012,8 34 -
13:54 17,1 1,1 8,0 NO 16,1 1012,8 34 -
13:59 17,0 1,0 12,9 ONO 16,1 1012,8 34 -
14:04 17,0 1,0 9,7 NO 17,7 1012,8 34 -
14:09 17,0 1,0 9,7 ONO 17,7 1012,8 34 -
14:14 17,0 1,0 8,0 ONO 17,7 1012,8 34 -
14:19 17,2 1,2 6,4 ONO 16,1 1012,8 34 -
14:24 17,6 1,5 8,0 NO 17,7 1012,8 34 -
14:29 17,7 1,6 12,9 Osten 17,7 1012,8 34 -
14:34 17,6 1,1 9,7 ONO 17,7 1012,8 33 -
14:39 17,7 1,2 8,0 Osten 17,7 1012,8 33 -
14:44 17,6 1,1 8,0 Osten 19,3 1012,8 33 -
14:49 17,6 0,7 12,9 ONO 19,3 1012,8 32 -
14:54 17,6 1,1 8,0 Osten 19,3 1012,8 33 -
14:59 17,8 1,3 9,7 OSO 14,5 1012,8 33 -
15:04 17,9 1,4 17,7 ONO 16,1 1012,8 33 -
15:09 18,0 1,1 17,7 SO 17,7 1012,8 32 -
15:14 18,0 1,1 14,5 ONO 17,7 1012,8 32 -
15:19 17,8 0,9 9,7 Osten 17,7 1012,8 32 -
15:24 17,9 1,4 9,7 ONO 17,7 1011,7 33 -
15:29 17,9 1,0 12,9 OSO 16,1 1011,7 32 -
15:34 17,8 0,9 8,0 ONO 20,9 1011,7 32 -
15:39 17,9 1,4 8,0 Osten 20,9 1011,7 33 -
15:44 17,9 1,0 12,9 SO 20,9 1011,7 32 -
15:49 18,1 0,7 12,9 OSO 17,7 1011,7 31 -
15:54 17,9 1,0 8,0 ONO 17,7 1011,7 32 -
15:59 17,7 0,8 12,9 ONO 20,9 1011,7 32 -
16:04 17,6 0,7 12,9 SO 20,9 1011,7 32 -
16:09 17,6 0,7 4,8 Osten 20,9 1011,7 32 -
16:14 17,5 0,6 12,9 Osten 20,9 1011,7 32 -
16:19 17,4 0,5 12,9 Osten 16,1 1011,7 32 -
16:24 17,3 0,4 12,9 Osten 20,9 1011,7 32 -
16:29 17,3 0,4 8,0 Osten 20,9 1011,7 32 -
16:34 17,2 0,4 12,9 OSO 20,9 1011,7 32 -
16:39 17,4 0,5 9,7 Osten 20,9 1011,7 32 -
16:44 17,2 0,4 17,7 ONO 20,9 1011,7 32 -
16:49 17,1 0,7 9,7 ONO 24,1 1011,7 33 -
16:54 17,1 0,7 12,9 Osten 24,1 1011,7 33 -
16:59 16,9 0,5 17,7 ONO 24,1 1011,7 33 -
17:04 16,7 0,3 12,9 Osten 22,5 1011,7 33 -
17:09 16,6 0,3 8,0 Osten 22,5 1011,7 33 -
17:14 16,6 0,3 16,1 OSO 22,5 1011,7 33 -
17:19 16,6 0,3 6,4 Osten 22,5 1011,7 33 -
17:24 16,6 0,7 9,7 ONO 19,3 1011,7 34 -
17:29 16,7 0,3 19,3 ONO 20,9 1011,7 33 -
17:34 16,5 0,2 14,5 Osten 20,9 1011,7 33 -
17:39 16,4 0,1 16,1 ONO 20,9 1011,7 33 -
17:44 16,3 0,0 12,9 OSO 22,5 1011,7 33 -
17:49 16,3 0,0 12,9 SO 22,5 1011,7 33 -
17:54 16,2 -0,1 12,9 Osten 22,5 1011,7 33 -
17:59 16,1 -0,2 17,7 SO 20,9 1011,7 33 -
18:04 15,9 -0,4 12,9 OSO 24,1 1011,7 33 -
18:09 15,8 0,0 8,0 ONO 27,4 1011,7 34 -
18:14 15,7 -0,1 16,1 Osten 27,4 1011,7 34 -
18:19 15,6 -0,2 17,7 ONO 27,4 1011,7 34 -
18:24 15,4 -0,4 12,9 Osten 25,7 1011,7 34 -
18:29 15,2 -0,6 9,7 OSO 27,4 1010,7 34 -
18:34 15,1 -0,7 12,9 Osten 27,4 1010,7 34 -
18:39 15,0 -0,3 9,7 Osten 27,4 1010,7 35 -
18:44 14,8 -0,1 19,3 ONO 27,4 1010,7 36 -
18:49 14,6 0,1 12,9 ONO 27,4 1010,7 37 -
18:54 14,4 -0,1 9,7 ONO 27,4 1010,7 37 -
18:59 14,3 -0,2 12,9 ONO 27,4 1010,7 37 -
19:04 14,1 0,0 12,9 ONO 24,1 1010,7 38 -
19:09 14,0 -0,1 17,7 ONO 24,1 1010,7 38 -
19:14 13,9 0,2 12,9 ONO 24,1 1010,7 39 -
19:19 13,7 0,0 8,0 ONO 20,9 1010,7 39 -
19:24 13,6 0,2 24,1 ONO 20,9 1010,7 40 -
19:29 13,4 0,1 24,1 ONO 24,1 1010,7 40 -
19:34 13,2 0,2 12,9 SSO 24,1 1010,7 41 -
19:39 13,1 0,5 12,9 SO 27,4 1010,7 42 -
19:44 13,0 0,4 20,9 Osten 27,4 1010,7 42 -
19:49 12,8 0,5 8,0 Osten 24,1 1010,7 43 -
19:54 12,7 0,8 16,1 OSO 22,5 1010,7 44 -
19:59 12,6 0,7 12,9 Osten 22,5 1010,7 44 -

Lade ein Kopie deiner Daten  here

Meine Wetterdaten gespeichert auf Weather Underground. Script entwickelt von Jim McMurry. Angepasst für das Template von Leuven-Template.eu